[[{"header":{"parameterUnit":"m.s-1","parameterCategory":1,"la1":30.2991,"la2":30.254,"lo1":-89.0895,"lo2":-89.0444,"dy":0.0017,"dx":0.0017,"nx":28,"ny":28,"refTime":"2025-04-20T21:00:00:Z","depth":0,"parameterNumber":2,"parameterNumberName":"U-component_of_WINDS"},"data":[0,0,0,0,0,0,0,0,0,0,0,0,0,0,0,0,0,0,0,0,0,0,0,0,0,0,0,0,0,0,0,0,0,0,0,0,0,0,0,0,0,0,0,0,0,0,0,0,0,0,0,0,0,0,0,0,0,0,-3.0802,-3.0803,0,-3.0892,-3.0893,-3.0894,-3.0884,-3.0883,-3.0881,-3.088,-3.097,-3.0974,-3.0977,0,0,0,0,0,0,0,0,0,0,0,0,0,-3.0619,-3.0623,-3.0802,-3.0803,-3.0804,-3.0892,-3.0893,-3.0895,-3.0885,-3.0883,-3.0881,-3.0879,-3.0969,-3.0973,-3.0978,0,0,0,0,0,0,0,0,0,0,0,0,0,-3.0703,-3.0624,-3.0802,-3.081,-3.0812,-3.0892,-3.0894,-3.0895,-3.0885,-3.0883,-3.0881,-3.0879,-3.0967,-3.0973,-3.0978,-3.1056,0,0,-3.0995,-3.0998,0,0,0,0,0,0,0,0,-3.0698,-3.071,-3.0808,-3.081,-3.0811,-3.0875,-3.0862,-3.0949,-3.0885,-3.0857,-3.088,-3.0878,-3.094,-3.0948,-3.0969,-3.106,-3.1064,-3.0996,-3.0999,-3.1002,-3.1003,0,0,0,0,0,0,0,-3.0693,-3.0706,-3.0838,-3.0809,-3.0811,-3.0809,-3.0818,-3.0878,-3.0909,-3.0859,-3.0859,-3.087,-3.0941,-3.0964,-3.0971,-3.1065,-3.0996,-3.1001,-3.1004,-3.1006,-3.1224,-3.1226,0,0,0,0,0,0,-3.0685,-3.0701,-3.0835,-3.084,-3.0749,-3.0814,-3.0824,-3.0857,-3.0909,-3.0915,-3.0872,-3.0869,-3.0955,-3.0965,-3.0974,-3.1068,-3.1002,-3.1007,-3.101,-3.1222,-3.1225,-3.1227,0,0,0,0,0,0,-3.0681,-3.0697,-3.0831,-3.0771,-3.0788,-3.0819,-3.0856,-3.086,-3.0883,-3.0918,-3.0923,-3.089,-3.0954,-3.0967,-3.1036,-3.1071,-3.1009,-3.1014,-3.1219,-3.1223,-3.1226,-3.1257,0,0,0,0,0,0,-3.0676,-3.0696,-3.0726,-3.0771,-3.0791,-3.0892,-3.0858,-3.0863,-3.0893,-3.089,-3.0936,-3.0942,-3.0953,-3.1028,-3.1041,-3.1078,-3.1019,-3.1216,-3.122,-3.1225,-3.1253,-3.1261,-3.1268,0,0,0,0,0,-3.0669,-3.073,-3.0727,-3.0743,-3.0829,-3.0894,-3.0905,-3.0917,-3.0896,-3.0926,-3.0949,-3.094,-3.1066,-3.1035,-3.105,-3.1089,-3.1213,-3.1219,-3.1224,-3.1249,-3.1259,-3.1268,0,0,0,0,0,0,-3.0687,-3.0736,-3.0734,-3.0811,-3.0849,-3.0892,-3.093,-3.0928,-3.0971,-3.0967,-3.098,-3.0991,-3.106,-3.1082,-3.1047,-3.1167,-3.1136,-3.1145,-3.115,-3.116,-3.1168,-3.116,-3.1023,0,0,0,0,0,-3.07,-3.0749,-3.0789,-3.0854,-3.0873,-3.0899,-3.0927,-3.0934,-3.0973,-3.0988,-3.1016,-3.1053,-3.1101,-3.1132,-3.1178,-3.1256,-3.1266,-3.1291,-3.1298,-3.1305,-3.1312,-3.1355,-3.1366,-3.1245,-3.1245,-3.1245,0,0,-3.0727,-3.076,-3.079,-3.0858,-3.0888,-3.0938,-3.0912,-3.0965,-3.1002,-3.0996,-3.1063,-3.1085,-3.1127,-3.1202,-3.1236,-3.1222,-3.1347,-3.1312,-3.1316,-3.132,-3.1362,-3.1373,-3.1383,-3.1249,-3.1248,-3.1248,0,0,-3.0801,-3.0832,-3.0889,-3.0919,-3.0965,-3.0982,-3.0996,-3.104,-3.1055,-3.1123,-3.1119,-3.1163,-3.1245,-3.1276,-3.1302,-3.1389,-3.1383,-3.1404,-3.1444,-3.1486,-3.1495,-3.1504,-3.1534,-3.1545,-3.1411,-3.1411,-3.1411,0,-3.0829,-3.0904,-3.0918,-3.0973,-3.1003,-3.1001,-3.1058,-3.1087,-3.1145,-3.1166,-3.1149,-3.1253,-3.1281,-3.1363,-3.1384,-3.1406,-3.1421,-3.1398,-3.1493,-3.1502,-3.151,-3.1539,-3.1551,-3.1413,-3.1413,-3.1413,-3.1413,0,-3.0936,-3.0988,-3.1029,-3.1086,-3.1121,-3.1177,-3.1198,-3.1232,-3.1236,-3.1255,-3.1324,-3.1358,-3.1411,-3.1431,-3.1435,-3.1514,-3.1503,-3.149,-3.146,-3.1523,-3.1551,-3.1562,-3.1417,-3.1416,-3.1415,-3.1415,0,0,-3.1022,-3.1087,-3.1102,-3.1128,-3.1179,-3.1219,-3.1275,-3.1328,-3.1356,-3.1397,-3.1444,-3.1514,-3.1502,-3.1532,-3.1539,-3.1576,-3.1643,-3.1559,-3.156,-3.1572,-3.1731,-3.174,-3.1753,-3.164,-3.1642,-3.1644,-3.1727,0,-3.1101,-3.1201,-3.1215,-3.1303,-3.1351,-3.1351,-3.1399,-3.1436,-3.1455,-3.1498,-3.1519,-3.1569,-3.155,-3.1568,-3.1604,-3.1627,-3.1675,-3.1622,-3.1683,-3.1685,-3.1671,-3.1768,-3.1778,-3.1854,-3.1738,-3.174,-3.1742,0,-3.1207,-3.1251,-3.1343,-3.1388,-3.1409,-3.1453,-3.1502,-3.1544,-3.1585,-3.1597,-3.1631,-3.1634,-3.1692,-3.166,-3.1739,-3.1703,-3.1729,-3.1744,-3.1747,-3.1753,-3.1716,-3.1775,-3.1879,-3.189,-3.1759,-3.1758,-3.1756,0,-3.126,-3.1343,-3.1409,-3.1431,-3.1485,-3.1516,-3.1539,-3.1579,-3.161,-3.1653,-3.1673,-3.1723,-3.1749,-3.1787,-3.1804,-3.1779,-3.1882,-3.1851,-3.1892,-3.1892,-3.1912,-3.1911,-3.2022,-3.1931,-3.1931,-3.1931,-3.193,0,-3.1346,-3.1402,-3.1433,-3.1474,-3.1537,-3.1554,-3.1616,-3.1638,-3.1673,-3.1718,-3.1721,-3.1762,-3.1782,-3.1827,-3.184,-3.1903,-3.1916,-3.1926,-3.1928,-3.1925,-3.1924,-3.1941,-3.1936,-3.1934,-3.1933,-3.1932,-3.1932,0,-3.1415,-3.1439,-3.151,-3.1556,-3.1569,-3.1614,-3.1652,-3.1692,-3.1711,-3.1768,-3.1782,-3.1812,-3.1865,-3.1886,-3.195,-3.1959,-3.2032,-3.203,-3.2018,-3.2018,-3.2058,-3.2053,-3.2183,-3.22,-3.2099,-3.21,-3.2101,0,-3.1468,-3.1512,-3.1563,-3.1593,-3.1618,-3.1667,-3.1699,-3.1717,-3.175,-3.1801,-3.1834,-3.1887,-3.193,-3.2015,-3.2042,-3.2091,-3.2091,-3.2133,-3.2098,-3.2093,-3.209,-3.2087,-3.2092,-3.2139,-3.214,-3.2141,-3.2141,0,-3.156,-3.1569,-3.1616,-3.1666,-3.1705,-3.1745,-3.1784,-3.1809,-3.1833,-3.187,-3.1925,-3.1958,-3.2025,-3.2077,-3.2128,-3.2152,-3.2151,-3.2152,-3.2164,-3.2161,-3.2151,-3.2156,-3.2034,-3.2149,-3.2148,-3.2147,-3.2147,-3.2147,-3.1622,-3.1661,-3.1703,-3.1755,-3.1786,-3.1823,-3.1863,-3.1887,-3.1934,-3.1989,-3.1997,-3.2056,-3.2096,-3.2165,-3.2191,-3.2236,-3.2225,-3.2242,-3.2247,-3.225,-3.2253,-3.2145,-3.2246,-3.2245,-3.2245,-3.2245,-3.2245,0,-3.1713,-3.1741,-3.1788,-3.1844,-3.1884,-3.1881,-3.1924,-3.1958,-3.201,-3.2048,-3.2091,-3.2154,-3.2205,-3.2237,-3.2288,-3.2318,-3.2319,-3.2331,-3.2328,-3.2334,-3.226,-3.2244,-3.233,-3.233,-3.233,-3.233,-3.233,-3.233,-3.1765,-3.1831,-3.1846,-3.1927,-3.1954,-3.2011,-3.2037,-3.2071,-3.2101,-3.2171,-3.2214,-3.2235,-3.2271,-3.2325,-3.2371,-3.238,-3.2398,-3.2411,-3.2418,-3.2348,-3.2339,-3.2331,-3.2316,-3.2415,-3.2415,-3.2488,-3.2488,-3.2489]},{"header":{"parameterUnit":"m.s-1","parameterCategory":1,"la1":30.2991,"la2":30.254,"lo1":-89.0895,"lo2":-89.0444,"dy":0.0017,"dx":0.0017,"nx":28,"ny":28,"refTime":"2025-04-20T21:00:00:Z","depth":0,"parameterNumber":3,"parameterNumberName":"V-component_of_WINDS"},"data":[0,0,0,0,0,0,0,0,0,0,0,0,0,0,0,0,0,0,0,0,0,0,0,0,0,0,0,0,0,0,0,0,0,0,0,0,0,0,0,0,0,0,0,0,0,0,0,0,0,0,0,0,0,0,0,0,0,0,2.5535,2.5536,0,2.5619,2.562,2.5621,2.5612,2.5611,2.5609,2.5608,2.5691,2.5695,2.5698,0,0,0,0,0,0,0,0,0,0,0,0,0,2.5364,2.5367,2.5535,2.5536,2.5537,2.5619,2.562,2.5621,2.5612,2.5611,2.5609,2.5608,2.569,2.5694,2.5698,0,0,0,0,0,0,0,0,0,0,0,0,0,2.5442,2.5368,2.5534,2.5542,2.5544,2.5619,2.562,2.5621,2.5613,2.5611,2.5609,2.5607,2.5689,2.5694,2.5699,2.577,0,0,2.5715,2.5717,0,0,0,0,0,0,0,0,2.5438,2.5449,2.554,2.5542,2.5544,2.5603,2.559,2.5671,2.5613,2.5586,2.5608,2.5606,2.5663,2.567,2.569,2.5774,2.5778,2.5715,2.5718,2.572,2.5722,0,0,0,0,0,0,0,2.5433,2.5445,2.5568,2.5541,2.5544,2.5541,2.555,2.5606,2.5635,2.5589,2.5588,2.5598,2.5664,2.5685,2.5692,2.5779,2.5715,2.5719,2.5723,2.5725,2.5928,2.593,0,0,0,0,0,0,2.5426,2.544,2.5565,2.557,2.5485,2.5546,2.5556,2.5586,2.5634,2.564,2.56,2.5598,2.5678,2.5686,2.5695,2.5784,2.572,2.5725,2.5728,2.5926,2.5928,2.5931,0,0,0,0,0,0,2.5422,2.5437,2.5562,2.5505,2.5521,2.5551,2.5585,2.5589,2.561,2.5643,2.5648,2.5617,2.5676,2.5688,2.5752,2.5786,2.5728,2.5732,2.5923,2.5926,2.593,2.596,0,0,0,0,0,0,2.5417,2.5435,2.5463,2.5506,2.5524,2.5618,2.5587,2.5592,2.562,2.5617,2.566,2.5665,2.5676,2.5745,2.5758,2.5792,2.5736,2.592,2.5924,2.5929,2.5956,2.5964,2.5971,0,0,0,0,0,2.5411,2.5467,2.5465,2.548,2.556,2.562,2.563,2.5642,2.5622,2.565,2.5672,2.5664,2.5781,2.5752,2.5766,2.5803,2.5918,2.5923,2.5928,2.5953,2.5963,2.5971,0,0,0,0,0,0,2.5425,2.5473,2.547,2.5542,2.5578,2.5618,2.5654,2.5652,2.5693,2.5689,2.5701,2.5711,2.5776,2.5796,2.5762,2.5876,2.5846,2.5855,2.586,2.587,2.5877,2.5871,2.5741,0,0,0,0,0,2.5437,2.5483,2.5522,2.5581,2.5599,2.5624,2.5651,2.5657,2.5694,2.5708,2.5734,2.5769,2.5814,2.5843,2.5886,2.5959,2.5969,2.5992,2.5999,2.6005,2.6012,2.6054,2.6065,2.5948,2.5948,2.5948,0,0,2.5461,2.5493,2.5521,2.5585,2.5613,2.5661,2.5636,2.5687,2.5722,2.5715,2.5779,2.5799,2.5839,2.5909,2.5941,2.5927,2.6047,2.6012,2.6016,2.602,2.6061,2.6072,2.6082,2.5951,2.5951,2.595,0,0,2.553,2.5558,2.5612,2.5642,2.5685,2.5702,2.5715,2.5757,2.5771,2.5835,2.5832,2.5873,2.5949,2.5979,2.6004,2.6087,2.6081,2.61,2.6139,2.618,2.6189,2.6197,2.6228,2.6239,2.6107,2.6107,2.6107,0,2.5555,2.5627,2.564,2.5692,2.5721,2.5719,2.5774,2.5801,2.5856,2.5876,2.586,2.5958,2.5984,2.6062,2.6083,2.6102,2.6118,2.6095,2.6187,2.6195,2.6203,2.6232,2.6244,2.6109,2.6109,2.6109,2.6108,0,2.5655,2.5705,2.5743,2.5799,2.5832,2.5885,2.5906,2.5938,2.5942,2.596,2.6026,2.6058,2.6109,2.6128,2.6131,2.6207,2.6197,2.6184,2.6155,2.6216,2.6244,2.6255,2.6112,2.6111,2.6111,2.611,0,0,2.5734,2.5798,2.5812,2.5838,2.5887,2.5926,2.5979,2.603,2.6058,2.6096,2.6141,2.6207,2.6196,2.6225,2.6232,2.6268,2.6333,2.625,2.6251,2.6266,2.642,2.643,2.6443,2.633,2.6332,2.6334,2.6417,0,2.5809,2.5905,2.5919,2.6004,2.6051,2.6051,2.6097,2.6133,2.6151,2.6194,2.6214,2.6261,2.6242,2.626,2.6295,2.6318,2.6364,2.6312,2.6373,2.6375,2.6363,2.6457,2.6468,2.6545,2.6428,2.643,2.6431,0,2.5908,2.5952,2.6041,2.6086,2.6106,2.6148,2.6197,2.6238,2.6278,2.6289,2.6322,2.6326,2.6381,2.635,2.6427,2.6391,2.6417,2.6432,2.6436,2.6442,2.6407,2.6467,2.6569,2.6581,2.6448,2.6447,2.6445,0,2.5959,2.6039,2.6104,2.6126,2.6179,2.6209,2.6232,2.6271,2.6301,2.6344,2.6364,2.6412,2.6438,2.6475,2.6491,2.6467,2.6568,2.6538,2.6579,2.6579,2.66,2.6599,2.6709,2.6616,2.6616,2.6616,2.6615,0,2.6041,2.6096,2.6127,2.6167,2.6229,2.6246,2.6307,2.6329,2.6364,2.6408,2.641,2.6451,2.647,2.6514,2.6527,2.659,2.6602,2.6612,2.6615,2.6613,2.6612,2.663,2.6625,2.6619,2.6618,2.6617,2.6617,0,2.6107,2.6131,2.6201,2.6247,2.626,2.6304,2.6343,2.6382,2.6401,2.6457,2.6471,2.6501,2.6553,2.6574,2.6637,2.6646,2.6719,2.6717,2.6706,2.6707,2.6747,2.6743,2.6873,2.6892,2.6786,2.6787,2.6788,0,2.6158,2.6201,2.6253,2.6283,2.6308,2.6357,2.6389,2.6407,2.644,2.649,2.6523,2.6576,2.6619,2.6703,2.673,2.6779,2.6779,2.6821,2.6786,2.6783,2.6781,2.6778,2.6783,2.6827,2.6828,2.6829,2.683,0,2.6247,2.6258,2.6304,2.6355,2.6394,2.6434,2.6474,2.6498,2.6523,2.656,2.6614,2.6648,2.6714,2.6767,2.6818,2.6841,2.684,2.6841,2.6853,2.6851,2.6844,2.685,2.6724,2.6838,2.6837,2.6836,2.6836,2.6836,2.6309,2.6348,2.6391,2.6443,2.6475,2.6513,2.6552,2.6577,2.6623,2.668,2.6687,2.6746,2.6787,2.6856,2.6882,2.6928,2.6916,2.6934,2.6939,2.6943,2.6947,2.6836,2.6937,2.6937,2.6936,2.6936,2.6936,0,2.6399,2.6427,2.6475,2.6532,2.6573,2.657,2.6614,2.6649,2.6701,2.674,2.6783,2.6847,2.6898,2.693,2.6982,2.7013,2.7014,2.7026,2.7024,2.703,2.6953,2.6938,2.7025,2.7025,2.7025,2.7025,2.7025,2.7024,2.6451,2.6518,2.6533,2.6616,2.6643,2.6702,2.6728,2.6763,2.6794,2.6866,2.6909,2.693,2.6967,2.7021,2.7069,2.7077,2.7096,2.711,2.7117,2.7044,2.7035,2.7026,2.7012,2.7113,2.7114,2.719,2.7191,2.7192]}]]